Time,TemperatureF,DewpointF,PressureIn,WindDirection,WindDirectionDegrees,WindSpeedMPH,WindSpeedGustMPH,Humidity,HourlyPrecipIn,Conditions,Clouds,dailyrainin,SoftwareType,DateUTC
2013-05-27 00:03:00,56.8,47.1,29.16,ENE,68,3.0,6.0,70,0.00,,,0.00,meteohub,2013-05-27 05:03:00,
2013-05-27 00:08:00,56.7,46.9,29.16,ENE,68,1.0,6.0,70,0.00,,,0.00,meteohub,2013-05-27 05:08:00,
2013-05-27 00:14:00,56.7,46.9,29.16,NE,45,3.0,6.0,70,0.00,,,0.00,meteohub,2013-05-27 05:14:00,
2013-05-27 00:19:00,56.7,47.3,29.16,ENE,68,0.0,6.0,71,0.00,,,0.00,meteohub,2013-05-27 05:19:00,
2013-05-27 00:24:00,56.7,47.3,29.16,ESE,112,4.0,6.0,71,0.00,,,0.00,meteohub,2013-05-27 05:24:00,
2013-05-27 00:29:00,56.7,47.7,29.19,ENE,68,3.0,9.0,72,0.00,,,0.00,meteohub,2013-05-27 05:29:00,
2013-05-27 00:34:00,56.5,47.7,29.19,ENE,68,2.0,9.0,72,0.00,,,0.00,meteohub,2013-05-27 05:34:00,
2013-05-27 00:39:00,56.5,47.7,29.19,ENE,68,4.0,6.0,72,0.00,,,0.00,meteohub,2013-05-27 05:39:00,
2013-05-27 00:44:00,56.3,47.5,29.16,ENE,68,5.0,6.0,72,0.00,,,0.00,meteohub,2013-05-27 05:44:00,
2013-05-27 00:50:00,56.3,47.5,29.16,NE,45,2.0,6.0,72,0.00,,,0.00,meteohub,2013-05-27 05:50:00,
2013-05-27 00:55:00,56.3,47.5,29.16,NE,45,3.0,7.0,72,0.00,,,0.00,meteohub,2013-05-27 05:55:00,
2013-05-27 01:00:00,56.3,47.8,29.16,ENE,68,5.0,7.0,73,0.00,,,0.00,meteohub,2013-05-27 06:00:00,
2013-05-27 01:05:00,56.3,47.8,29.16,ENE,68,4.0,5.0,73,0.00,,,0.00,meteohub,2013-05-27 06:05:00,
2013-05-27 01:10:00,56.3,47.8,29.16,ENE,68,4.0,5.0,73,0.00,,,0.00,meteohub,2013-05-27 06:10:00,
2013-05-27 01:15:00,56.3,47.8,29.13,ENE,68,3.0,5.0,73,0.00,,,0.00,meteohub,2013-05-27 06:15:00,
2013-05-27 01:20:00,56.3,47.8,29.13,ENE,68,2.0,5.0,73,0.00,,,0.00,meteohub,2013-05-27 06:20:00,
2013-05-27 01:25:00,56.3,47.8,29.13,NE,45,3.0,5.0,73,0.00,,,0.00,meteohub,2013-05-27 06:25:00,
2013-05-27 01:31:00,56.3,47.8,29.16,South,180,4.0,5.0,73,0.00,,,0.00,meteohub,2013-05-27 06:31:00,
2013-05-27 01:36:00,56.3,47.8,29.16,SSE,158,1.0,6.0,73,0.00,,,0.00,meteohub,2013-05-27 06:36:00,
2013-05-27 01:41:00,56.3,47.8,29.16,East,90,2.0,6.0,73,0.00,,,0.00,meteohub,2013-05-27 06:41:00,
2013-05-27 01:46:00,56.3,47.5,29.16,ENE,68,2.0,8.0,72,0.00,,,0.00,meteohub,2013-05-27 06:46:00,
2013-05-27 01:51:00,56.3,47.5,29.16,ESE,112,0.0,8.0,72,0.00,,,0.00,meteohub,2013-05-27 06:51:00,
2013-05-27 01:56:00,56.3,47.8,29.16,ESE,112,3.0,5.0,73,0.00,,,0.00,meteohub,2013-05-27 06:56:00,
2013-05-27 02:01:00,56.3,47.8,29.19,East,90,3.0,9.0,73,0.00,,,0.00,meteohub,2013-05-27 07:01:00,
2013-05-27 02:07:00,56.3,47.8,29.19,SSE,158,3.0,9.0,73,0.00,,,0.00,meteohub,2013-05-27 07:07:00,
2013-05-27 02:12:00,56.3,47.8,29.19,ESE,112,3.0,6.0,73,0.00,,,0.00,meteohub,2013-05-27 07:12:00,
2013-05-27 02:17:00,56.3,47.8,29.16,SE,135,2.0,11.0,73,0.00,,,0.00,meteohub,2013-05-27 07:17:00,
2013-05-27 02:22:00,56.3,47.8,29.16,SE,135,2.0,11.0,73,0.00,,,0.00,meteohub,2013-05-27 07:22:00,
2013-05-27 02:27:00,56.3,47.8,29.16,SE,135,10.0,11.0,73,0.00,,,0.00,meteohub,2013-05-27 07:27:00,
2013-05-27 02:32:00,56.3,47.8,29.16,ESE,112,3.0,17.0,73,0.00,,,0.00,meteohub,2013-05-27 07:32:00,
2013-05-27 02:37:00,56.3,47.8,29.16,SSE,158,0.0,17.0,73,0.00,,,0.00,meteohub,2013-05-27 07:37:00,
2013-05-27 02:42:00,56.3,47.8,29.16,ESE,112,4.0,17.0,73,0.00,,,0.00,meteohub,2013-05-27 07:42:00,
2013-05-27 02:47:00,56.3,48.2,29.16,SSE,158,0.0,11.0,74,0.00,,,0.00,meteohub,2013-05-27 07:47:00,
2013-05-27 02:52:00,56.1,48.0,29.16,WNW,292,0.0,6.0,74,0.00,,,0.00,meteohub,2013-05-27 07:52:00,
2013-05-27 02:57:00,56.1,48.0,29.16,NE,45,0.0,6.0,74,0.00,,,0.00,meteohub,2013-05-27 07:57:00,
2013-05-27 03:02:00,56.1,48.0,29.16,ENE,68,4.0,5.0,74,0.00,,,0.00,meteohub,2013-05-27 08:02:00,
2013-05-27 03:07:00,55.9,48.2,29.16,SSE,158,2.0,5.0,75,0.00,,,0.00,meteohub,2013-05-27 08:07:00,
2013-05-27 03:12:00,55.9,48.2,29.16,SSE,158,3.0,5.0,75,0.00,,,0.00,meteohub,2013-05-27 08:12:00,
2013-05-27 03:17:00,55.9,48.6,29.16,ESE,112,0.0,5.0,76,0.00,,,0.00,meteohub,2013-05-27 08:17:00,
2013-05-27 03:22:00,55.9,48.6,29.16,ENE,68,3.0,5.0,76,0.00,,,0.00,meteohub,2013-05-27 08:22:00,
2013-05-27 03:27:00,55.9,48.9,29.13,ENE,68,2.0,3.0,77,0.00,,,0.00,meteohub,2013-05-27 08:27:00,
2013-05-27 03:32:00,55.9,48.9,29.13,ENE,68,1.0,5.0,77,0.00,,,0.00,meteohub,2013-05-27 08:32:00,
2013-05-27 03:37:00,55.8,48.7,29.13,East,90,2.0,5.0,77,0.00,,,0.00,meteohub,2013-05-27 08:37:00,
2013-05-27 03:42:00,55.8,48.7,29.13,ESE,112,2.0,5.0,77,0.00,,,0.00,meteohub,2013-05-27 08:42:00,
2013-05-27 03:47:00,55.8,48.7,29.13,ENE,68,3.0,4.0,77,0.00,,,0.00,meteohub,2013-05-27 08:47:00,
2013-05-27 03:52:00,55.8,48.7,29.13,NE,45,3.0,4.0,77,0.00,,,0.00,meteohub,2013-05-27 08:52:00,
2013-05-27 03:57:00,55.8,48.7,29.10,NE,45,3.0,4.0,77,0.00,,,0.00,meteohub,2013-05-27 08:57:00,
2013-05-27 04:02:00,55.8,49.1,29.10,NE,45,1.0,4.0,78,0.00,,,0.00,meteohub,2013-05-27 09:02:00,
2013-05-27 04:07:00,55.8,49.1,29.10,NNE,22,4.0,4.0,78,0.00,,,0.00,meteohub,2013-05-27 09:07:00,
2013-05-27 04:12:00,55.8,49.1,29.10,NNE,22,3.0,4.0,78,0.00,,,0.00,meteohub,2013-05-27 09:12:00,
2013-05-27 04:17:00,55.8,49.1,29.10,ENE,68,3.0,4.0,78,0.00,,,0.00,meteohub,2013-05-27 09:17:00,
2013-05-27 04:22:00,55.8,49.1,29.10,SE,135,3.0,4.0,78,0.00,,,0.00,meteohub,2013-05-27 09:22:00,
2013-05-27 04:27:00,55.8,49.1,29.10,NE,45,3.0,4.0,78,0.00,,,0.00,meteohub,2013-05-27 09:27:00,
2013-05-27 04:32:00,55.8,49.3,29.13,ENE,68,4.0,4.0,79,0.00,,,0.00,meteohub,2013-05-27 09:32:00,
2013-05-27 04:37:00,55.8,49.3,29.13,ENE,68,2.0,4.0,79,0.00,,,0.00,meteohub,2013-05-27 09:37:00,
2013-05-27 04:42:00,55.8,49.6,29.10,NE,45,3.0,4.0,80,0.00,,,0.00,meteohub,2013-05-27 09:42:00,
2013-05-27 04:47:00,55.8,49.6,29.10,ENE,68,3.0,4.0,80,0.00,,,0.00,meteohub,2013-05-27 09:47:00,
2013-05-27 04:52:00,55.8,49.6,29.10,ENE,68,4.0,4.0,80,0.00,,,0.00,meteohub,2013-05-27 09:52:00,
2013-05-27 04:57:00,55.8,50.0,29.13,East,90,3.0,4.0,81,0.00,,,0.00,meteohub,2013-05-27 09:57:00,
2013-05-27 05:02:00,55.8,50.0,29.13,SSE,158,4.0,4.0,81,0.00,,,0.00,meteohub,2013-05-27 10:02:00,
2013-05-27 05:07:00,55.8,50.0,29.13,ENE,68,2.0,4.0,81,0.00,,,0.00,meteohub,2013-05-27 10:07:00,
2013-05-27 05:12:00,55.8,50.0,29.13,NE,45,3.0,4.0,81,0.00,,,0.00,meteohub,2013-05-27 10:12:00,
2013-05-27 05:17:00,55.8,50.0,29.13,East,90,4.0,4.0,81,0.00,,,0.00,meteohub,2013-05-27 10:17:00,
2013-05-27 05:22:00,55.8,50.0,29.13,ENE,68,1.0,4.0,81,0.00,,,0.00,meteohub,2013-05-27 10:22:00,
2013-05-27 05:27:00,55.6,50.2,29.13,NE,45,1.0,4.0,82,0.00,,,0.00,meteohub,2013-05-27 10:27:00,
2013-05-27 05:32:00,55.6,50.2,29.10,NE,45,4.0,4.0,82,0.00,,,0.00,meteohub,2013-05-27 10:32:00,
2013-05-27 05:37:00,55.8,50.4,29.10,SSE,158,3.0,4.0,82,0.00,,,0.00,meteohub,2013-05-27 10:37:00,
2013-05-27 05:42:00,55.6,50.2,29.10,East,90,2.0,5.0,82,0.00,,,0.00,meteohub,2013-05-27 10:42:00,
2013-05-27 05:47:00,55.6,50.2,29.10,NE,45,4.0,5.0,82,0.00,,,0.00,meteohub,2013-05-27 10:47:00,
2013-05-27 05:52:00,55.8,50.4,29.10,ESE,112,3.0,5.0,82,0.00,,,0.00,meteohub,2013-05-27 10:52:00,
2013-05-27 05:57:00,55.8,50.4,29.10,NE,45,4.0,5.0,82,0.00,,,0.00,meteohub,2013-05-27 10:57:00,
2013-05-27 06:02:00,55.8,50.4,29.10,NE,45,4.0,6.0,82,0.00,,,0.00,meteohub,2013-05-27 11:02:00,
2013-05-27 06:07:00,55.8,50.4,29.10,ESE,112,2.0,6.0,82,0.00,,,0.00,meteohub,2013-05-27 11:07:00,
2013-05-27 06:12:00,55.8,50.4,29.10,ESE,112,3.0,5.0,82,0.00,,,0.00,meteohub,2013-05-27 11:12:00,
2013-05-27 06:17:00,55.8,50.4,29.13,NE,45,2.0,5.0,82,0.00,,,0.00,meteohub,2013-05-27 11:17:00,
2013-05-27 06:22:00,55.8,50.4,29.13,ENE,68,3.0,5.0,82,0.00,,,0.00,meteohub,2013-05-27 11:22:00,
2013-05-27 06:27:00,55.8,50.4,29.13,NE,45,3.0,5.0,82,0.00,,,0.00,meteohub,2013-05-27 11:27:00,
2013-05-27 06:32:00,55.8,50.4,29.13,ENE,68,3.0,6.0,82,0.00,,,0.00,meteohub,2013-05-27 11:32:00,
2013-05-27 06:37:00,55.8,50.4,29.13,SE,135,4.0,6.0,82,0.00,,,0.00,meteohub,2013-05-27 11:37:00,
2013-05-27 06:42:00,55.8,50.4,29.13,NW,315,2.0,6.0,82,0.00,,,0.00,meteohub,2013-05-27 11:42:00,
2013-05-27 06:47:00,55.6,50.5,29.13,ENE,68,3.0,6.0,83,0.00,,,0.00,meteohub,2013-05-27 11:47:00,
2013-05-27 06:52:00,55.2,50.7,29.13,ENE,68,4.0,6.0,85,0.00,,,0.00,meteohub,2013-05-27 11:52:00,
2013-05-27 06:57:00,54.9,51.1,29.13,East,90,2.0,4.0,87,0.00,,,0.00,meteohub,2013-05-27 11:57:00,
2013-05-27 07:02:00,54.5,51.1,29.13,ESE,112,2.0,4.0,88,0.00,,,0.00,meteohub,2013-05-27 12:02:00,
2013-05-27 07:07:00,54.5,51.6,29.13,ENE,68,1.0,4.0,90,0.00,,,0.00,meteohub,2013-05-27 12:07:00,
2013-05-27 07:12:00,54.1,51.3,29.13,East,90,2.0,4.0,90,0.00,,,0.00,meteohub,2013-05-27 12:12:00,
2013-05-27 07:17:00,54.0,51.6,29.13,NE,45,3.0,4.0,92,0.00,,,0.00,meteohub,2013-05-27 12:17:00,
2013-05-27 07:22:00,53.8,52.2,29.13,ENE,68,3.0,4.0,94,0.00,,,0.00,meteohub,2013-05-27 12:22:00,
2013-05-27 07:27:00,53.6,52.2,29.10,NE,45,4.0,4.0,95,0.00,,,0.00,meteohub,2013-05-27 12:27:00,
2013-05-27 07:32:00,53.4,52.3,29.10,NE,45,3.0,4.0,96,0.00,,,0.00,meteohub,2013-05-27 12:32:00,
2013-05-27 07:37:00,53.4,52.3,29.10,NE,45,4.0,4.0,96,0.00,,,0.00,meteohub,2013-05-27 12:37:00,
2013-05-27 07:42:00,53.2,52.3,29.07,SSW,202,3.0,4.0,97,0.00,,,0.00,meteohub,2013-05-27 12:42:00,
2013-05-27 07:47:00,53.2,52.3,29.07,NE,45,4.0,4.0,97,0.00,,,0.00,meteohub,2013-05-27 12:47:00,
2013-05-27 07:52:00,53.1,52.5,29.07,ENE,68,4.0,4.0,98,0.00,,,0.00,meteohub,2013-05-27 12:52:00,
2013-05-27 07:57:00,53.1,52.5,29.10,ENE,68,5.0,6.0,98,0.00,,,0.00,meteohub,2013-05-27 12:57:00,
2013-05-27 08:02:00,53.1,52.5,29.10,NE,45,4.0,6.0,98,0.00,,,0.00,meteohub,2013-05-27 13:02:00,
2013-05-27 08:07:00,53.1,52.5,29.10,ENE,68,2.0,5.0,98,0.00,,,0.00,meteohub,2013-05-27 13:07:00,
2013-05-27 08:12:00,53.1,52.5,29.10,East,90,6.0,6.0,98,0.00,,,0.00,meteohub,2013-05-27 13:12:00,
2013-05-27 08:17:00,53.1,52.5,29.10,NE,45,3.0,6.0,98,0.00,,,0.00,meteohub,2013-05-27 13:17:00,
2013-05-27 08:22:00,53.1,52.5,29.10,NE,45,3.0,6.0,98,0.00,,,0.00,meteohub,2013-05-27 13:22:00,
2013-05-27 08:27:00,53.1,52.5,29.13,ENE,68,3.0,6.0,98,0.00,,,0.00,meteohub,2013-05-27 13:27:00,
2013-05-27 08:32:00,53.1,52.5,29.13,NE,45,4.0,4.0,98,0.00,,,0.00,meteohub,2013-05-27 13:32:00,
2013-05-27 08:37:00,53.1,52.5,29.13,ENE,68,4.0,4.0,98,0.00,,,0.00,meteohub,2013-05-27 13:37:00,
2013-05-27 08:42:00,53.1,52.5,29.10,ENE,68,4.0,5.0,98,0.00,,,0.00,meteohub,2013-05-27 13:42:00,
2013-05-27 08:47:00,53.1,52.5,29.10,ESE,112,4.0,6.0,98,0.00,,,0.00,meteohub,2013-05-27 13:47:00,
2013-05-27 08:52:00,53.1,52.5,29.10,ENE,68,4.0,6.0,98,0.00,,,0.00,meteohub,2013-05-27 13:52:00,
2013-05-27 08:57:00,53.1,52.5,29.10,ENE,68,4.0,5.0,98,0.00,,,0.00,meteohub,2013-05-27 13:57:00,
2013-05-27 09:02:00,53.1,52.5,29.10,NNE,22,4.0,6.0,98,0.00,,,0.00,meteohub,2013-05-27 14:02:00,
2013-05-27 09:07:00,53.2,52.7,29.10,ENE,68,3.0,6.0,98,0.00,,,0.00,meteohub,2013-05-27 14:07:00,
2013-05-27 09:12:00,53.2,52.7,29.10,ENE,68,3.0,6.0,98,0.00,,,0.00,meteohub,2013-05-27 14:12:00,
2013-05-27 09:17:00,53.4,52.9,29.07,NE,45,1.0,5.0,98,0.00,,,0.00,meteohub,2013-05-27 14:17:00,
2013-05-27 09:22:00,53.4,52.9,29.07,ENE,68,3.0,4.0,98,0.00,,,0.00,meteohub,2013-05-27 14:22:00,
2013-05-27 09:27:00,53.6,53.1,29.07,ENE,68,3.0,4.0,98,0.00,,,0.00,meteohub,2013-05-27 14:27:00,
2013-05-27 09:32:00,53.6,52.7,29.07,NNE,22,3.0,4.0,97,0.00,,,0.00,meteohub,2013-05-27 14:32:00,
2013-05-27 09:37:00,53.6,52.7,29.07,East,90,2.0,4.0,97,0.00,,,0.00,meteohub,2013-05-27 14:37:00,
2013-05-27 09:42:00,53.6,52.7,29.07,NE,45,3.0,4.0,97,0.00,,,0.00,meteohub,2013-05-27 14:42:00,
2013-05-27 09:47:00,53.6,52.5,29.07,East,90,3.0,4.0,96,0.00,,,0.00,meteohub,2013-05-27 14:47:00,
2013-05-27 09:52:00,53.6,52.5,29.07,ENE,68,3.0,5.0,96,0.00,,,0.00,meteohub,2013-05-27 14:52:00,
2013-05-27 09:57:00,53.6,52.5,29.10,ENE,68,3.0,5.0,96,0.00,,,0.00,meteohub,2013-05-27 14:57:00,
2013-05-27 10:02:00,53.6,52.2,29.10,NE,45,4.0,5.0,95,0.00,,,0.00,meteohub,2013-05-27 15:02:00,
2013-05-27 10:07:00,53.6,52.2,29.10,NE,45,5.0,5.0,95,0.00,,,0.00,meteohub,2013-05-27 15:07:00,
2013-05-27 10:12:00,53.6,52.2,29.10,NE,45,5.0,6.0,95,0.00,,,0.00,meteohub,2013-05-27 15:12:00,
2013-05-27 10:17:00,53.8,52.3,29.10,ENE,68,3.0,6.0,95,0.00,,,0.00,meteohub,2013-05-27 15:17:00,
2013-05-27 10:22:00,54.1,52.7,29.10,NE,45,2.0,6.0,95,0.00,,,0.00,meteohub,2013-05-27 15:22:00,
2013-05-27 10:27:00,54.3,52.9,29.10,East,90,3.0,6.0,95,0.00,,,0.00,meteohub,2013-05-27 15:27:00,
2013-05-27 10:32:00,54.1,52.5,29.10,NE,45,3.0,5.0,94,0.00,,,0.00,meteohub,2013-05-27 15:32:00,
2013-05-27 10:37:00,54.3,52.7,29.10,NE,45,3.0,4.0,94,0.00,,,0.00,meteohub,2013-05-27 15:37:00,
2013-05-27 10:42:00,54.7,52.7,29.10,NE,45,3.0,5.0,93,0.00,,,0.00,meteohub,2013-05-27 15:42:00,
2013-05-27 10:47:00,55.0,52.5,29.10,ENE,68,4.0,5.0,91,0.00,,,0.00,meteohub,2013-05-27 15:47:00,
2013-05-27 10:52:00,55.4,52.2,29.10,ENE,68,4.0,5.0,89,0.00,,,0.00,meteohub,2013-05-27 15:52:00,
2013-05-27 10:57:00,55.6,52.3,29.10,ENE,68,4.0,5.0,89,0.00,,,0.00,meteohub,2013-05-27 15:57:00,
2013-05-27 11:02:00,55.8,51.6,29.07,NE,45,4.0,6.0,86,0.00,,,0.00,meteohub,2013-05-27 16:02:00,
2013-05-27 11:07:00,55.9,51.3,29.07,East,90,3.0,6.0,84,0.00,,,0.00,meteohub,2013-05-27 16:07:00,
2013-05-27 11:12:00,56.3,51.6,29.04,NE,45,5.0,6.0,84,0.00,,,0.00,meteohub,2013-05-27 16:12:00,
2013-05-27 11:17:00,56.5,51.8,29.04,NE,45,3.0,6.0,84,0.00,,,0.00,meteohub,2013-05-27 16:17:00,
2013-05-27 11:22:00,57.2,52.2,29.04,ENE,68,6.0,6.0,83,0.00,,,0.00,meteohub,2013-05-27 16:22:00,
2013-05-27 11:27:00,57.2,51.4,29.01,ESE,112,4.0,6.0,81,0.00,,,0.00,meteohub,2013-05-27 16:27:00,
2013-05-27 11:32:00,57.6,51.8,29.01,ESE,112,3.0,6.0,81,0.00,,,0.00,meteohub,2013-05-27 16:32:00,
2013-05-27 11:37:00,57.9,51.8,29.01,ENE,68,4.0,6.0,80,0.00,,,0.00,meteohub,2013-05-27 16:37:00,
2013-05-27 11:42:00,58.3,51.4,29.04,ESE,112,5.0,6.0,78,0.00,,,0.00,meteohub,2013-05-27 16:42:00,
2013-05-27 11:47:00,59.5,52.7,29.04,ENE,68,2.0,6.0,78,0.00,,,0.00,meteohub,2013-05-27 16:47:00,
2013-05-27 11:52:00,59.7,51.8,29.04,ENE,68,5.0,6.0,75,0.00,,,0.00,meteohub,2013-05-27 16:52:00,
2013-05-27 11:57:00,59.5,51.3,29.04,NE,45,6.0,6.0,74,0.00,,,0.00,meteohub,2013-05-27 16:57:00,
2013-05-27 12:02:00,59.9,52.3,29.04,NE,45,4.0,6.0,76,0.00,,,0.00,meteohub,2013-05-27 17:02:00,
2013-05-27 12:07:00,59.7,51.4,29.04,NE,45,4.0,6.0,74,0.00,,,0.00,meteohub,2013-05-27 17:07:00,
2013-05-27 12:12:00,60.8,52.5,29.04,East,90,3.0,6.0,74,0.00,,,0.00,meteohub,2013-05-27 17:12:00,
2013-05-27 12:17:00,60.8,50.9,29.04,SSW,202,2.0,6.0,70,0.00,,,0.00,meteohub,2013-05-27 17:17:00,
2013-05-27 12:22:00,61.0,51.1,29.04,NE,45,6.0,6.0,70,0.00,,,0.00,meteohub,2013-05-27 17:22:00,
2013-05-27 12:27:00,60.8,50.9,29.04,NNE,22,6.0,6.0,70,0.00,,,0.00,meteohub,2013-05-27 17:27:00,
2013-05-27 12:32:00,60.1,50.7,29.04,ESE,112,4.0,9.0,71,0.00,,,0.00,meteohub,2013-05-27 17:32:00,
2013-05-27 12:37:00,59.4,50.4,29.04,NE,45,6.0,9.0,72,0.00,,,0.00,meteohub,2013-05-27 17:37:00,
2013-05-27 12:42:00,59.4,50.4,29.04,ESE,112,2.0,9.0,72,0.00,,,0.00,meteohub,2013-05-27 17:42:00,
2013-05-27 12:47:00,59.2,50.2,29.04,ENE,68,5.0,6.0,72,0.00,,,0.00,meteohub,2013-05-27 17:47:00,
2013-05-27 12:52:00,59.5,50.9,29.04,NE,45,2.0,6.0,73,0.00,,,0.00,meteohub,2013-05-27 17:52:00,
2013-05-27 12:57:00,59.5,50.9,29.04,NE,45,4.0,5.0,73,0.00,,,0.00,meteohub,2013-05-27 17:57:00,
2013-05-27 13:02:00,59.7,50.7,29.04,SE,135,1.0,5.0,72,0.00,,,0.00,meteohub,2013-05-27 18:02:00,
2013-05-27 13:07:00,59.7,50.4,29.04,ESE,112,4.0,5.0,71,0.00,,,0.00,meteohub,2013-05-27 18:07:00,
2013-05-27 13:12:00,59.9,50.5,29.04,ENE,68,1.0,5.0,71,0.00,,,0.00,meteohub,2013-05-27 18:12:00,
2013-05-27 13:17:00,60.1,50.7,29.04,NNW,338,4.0,5.0,71,0.00,,,0.00,meteohub,2013-05-27 18:17:00,
2013-05-27 13:22:00,59.7,50.0,29.04,NE,45,3.0,6.0,70,0.00,,,0.00,meteohub,2013-05-27 18:22:00,
2013-05-27 13:27:00,59.4,49.3,29.04,NE,45,5.0,6.0,69,0.00,,,0.00,meteohub,2013-05-27 18:27:00,
2013-05-27 13:32:00,59.4,49.3,29.04,NE,45,4.0,6.0,69,0.00,,,0.00,meteohub,2013-05-27 18:32:00,
2013-05-27 13:37:00,59.4,49.6,29.04,ENE,68,2.0,6.0,70,0.00,,,0.00,meteohub,2013-05-27 18:37:00,
2013-05-27 13:42:00,59.5,49.8,29.04,NE,45,4.0,6.0,70,0.00,,,0.00,meteohub,2013-05-27 18:42:00,
2013-05-27 13:47:00,59.7,50.0,29.04,ENE,68,4.0,5.0,70,0.00,,,0.00,meteohub,2013-05-27 18:47:00,
2013-05-27 13:52:00,60.3,50.4,29.04,ENE,68,2.0,5.0,70,0.00,,,0.00,meteohub,2013-05-27 18:52:00,
2013-05-27 13:57:00,60.6,50.0,29.04,NE,45,6.0,6.0,68,0.00,,,0.00,meteohub,2013-05-27 18:57:00,
2013-05-27 14:02:00,60.6,49.6,29.04,ENE,68,4.0,8.0,67,0.00,,,0.00,meteohub,2013-05-27 19:02:00,
2013-05-27 14:07:00,60.6,49.3,29.04,NE,45,4.0,8.0,66,0.00,,,0.00,meteohub,2013-05-27 19:07:00,
2013-05-27 14:12:00,61.0,49.6,29.04,NNE,22,3.0,8.0,66,0.00,,,0.00,meteohub,2013-05-27 19:12:00,
2013-05-27 14:17:00,61.0,49.6,29.04,NE,45,4.0,5.0,66,0.00,,,0.00,meteohub,2013-05-27 19:17:00,
2013-05-27 14:22:00,60.6,49.3,29.04,NE,45,4.0,6.0,66,0.00,,,0.00,meteohub,2013-05-27 19:22:00,
2013-05-27 14:27:00,60.4,49.1,29.04,NE,45,3.0,6.0,66,0.00,,,0.00,meteohub,2013-05-27 19:27:00,
2013-05-27 14:32:00,60.4,49.5,29.04,NE,45,4.0,6.0,67,0.00,,,0.00,meteohub,2013-05-27 19:32:00,
2013-05-27 14:37:00,60.6,50.0,29.04,NE,45,4.0,6.0,68,0.00,,,0.00,meteohub,2013-05-27 19:37:00,
2013-05-27 14:42:00,61.0,50.4,29.07,NE,45,3.0,6.0,68,0.00,,,0.00,meteohub,2013-05-27 19:42:00,
2013-05-27 14:47:00,61.0,50.4,29.07,NE,45,3.0,5.0,68,0.00,,,0.00,meteohub,2013-05-27 19:47:00,
2013-05-27 14:52:00,61.0,50.4,29.07,ENE,68,4.0,4.0,68,0.00,,,0.00,meteohub,2013-05-27 19:52:00,
2013-05-27 14:57:00,60.8,50.5,29.04,ENE,68,3.0,5.0,69,0.00,,,0.00,meteohub,2013-05-27 19:57:00,
2013-05-27 15:02:00,60.8,50.5,29.04,East,90,3.0,5.0,69,0.00,,,0.00,meteohub,2013-05-27 20:02:00,
2013-05-27 15:07:00,60.8,50.5,29.04,ENE,68,3.0,5.0,69,0.00,,,0.00,meteohub,2013-05-27 20:07:00,
2013-05-27 15:12:00,60.8,50.5,29.04,ENE,68,3.0,4.0,69,0.00,,,0.00,meteohub,2013-05-27 20:12:00,
2013-05-27 15:17:00,60.6,50.4,29.04,NE,45,3.0,4.0,69,0.00,,,0.00,meteohub,2013-05-27 20:17:00,
2013-05-27 15:22:00,60.8,50.5,29.04,NE,45,2.0,4.0,69,0.00,,,0.00,meteohub,2013-05-27 20:22:00,
2013-05-27 15:27:00,61.0,50.7,29.04,NE,45,3.0,4.0,69,0.00,,,0.00,meteohub,2013-05-27 20:27:00,
2013-05-27 15:32:00,60.8,50.9,29.04,ENE,68,6.0,6.0,70,0.00,,,0.00,meteohub,2013-05-27 20:32:00,
2013-05-27 15:37:00,60.8,50.9,29.04,ENE,68,4.0,6.0,70,0.00,,,0.00,meteohub,2013-05-27 20:37:00,
2013-05-27 15:42:00,60.6,51.3,29.04,NNE,22,5.0,6.0,71,0.00,,,0.00,meteohub,2013-05-27 20:42:00,
2013-05-27 15:47:00,60.4,51.4,29.04,NE,45,3.0,6.0,72,0.00,,,0.00,meteohub,2013-05-27 20:47:00,
2013-05-27 15:52:00,59.7,51.1,29.04,NNE,22,3.0,5.0,73,0.00,,,0.00,meteohub,2013-05-27 20:52:00,
2013-05-27 15:57:00,59.5,51.6,29.04,ENE,68,3.0,6.0,75,0.00,,,0.00,meteohub,2013-05-27 20:57:00,
2013-05-27 16:02:00,59.4,52.5,29.04,ENE,68,2.0,6.0,78,0.00,,,0.00,meteohub,2013-05-27 21:02:00,
2013-05-27 16:07:00,59.4,52.5,29.04,NE,45,2.0,5.0,78,0.00,,,0.00,meteohub,2013-05-27 21:07:00,
2013-05-27 16:12:00,58.8,53.4,29.04,ENE,68,2.0,5.0,82,0.00,,,0.00,meteohub,2013-05-27 21:12:00,
2013-05-27 16:17:00,58.5,53.2,29.04,NE,45,2.0,4.0,83,0.00,,,0.00,meteohub,2013-05-27 21:17:00,
2013-05-27 16:22:00,58.3,53.4,29.04,ENE,68,2.0,3.0,84,0.00,,,0.00,meteohub,2013-05-27 21:22:00,
2013-05-27 16:27:00,58.1,54.3,29.04,ENE,68,3.0,4.0,87,0.00,,,0.00,meteohub,2013-05-27 21:27:00,
2013-05-27 16:32:00,57.9,54.3,29.04,NE,45,3.0,4.0,88,0.00,,,0.00,meteohub,2013-05-27 21:32:00,
2013-05-27 16:37:00,57.6,54.7,29.04,ENE,68,1.0,3.0,90,0.00,,,0.00,meteohub,2013-05-27 21:37:00,
2013-05-27 16:42:00,57.6,54.7,29.04,ENE,68,0.0,3.0,90,0.00,,,0.00,meteohub,2013-05-27 21:42:00,
2013-05-27 16:47:00,57.4,54.5,29.04,ENE,68,0.0,3.0,90,0.00,,,0.00,meteohub,2013-05-27 21:47:00,
2013-05-27 16:52:00,57.2,54.7,29.04,ENE,68,0.0,2.0,91,0.00,,,0.00,meteohub,2013-05-27 21:52:00,
2013-05-27 16:57:00,57.2,54.9,29.04,ENE,68,0.0,2.0,92,0.00,,,0.00,meteohub,2013-05-27 21:57:00,
2013-05-27 17:02:00,57.2,54.7,29.04,East,90,0.0,2.0,91,0.00,,,0.00,meteohub,2013-05-27 22:02:00,
2013-05-27 17:07:00,57.0,55.0,29.04,ENE,68,0.0,0.0,93,0.00,,,0.00,meteohub,2013-05-27 22:07:00,
2013-05-27 17:12:00,57.0,55.0,29.04,ENE,68,0.0,0.0,93,0.00,,,0.00,meteohub,2013-05-27 22:12:00,
2013-05-27 17:17:00,56.8,55.2,29.04,NE,45,1.0,0.0,94,0.00,,,0.00,meteohub,2013-05-27 22:17:00,
2013-05-27 17:22:00,56.8,55.4,29.04,NE,45,0.0,1.0,95,0.00,,,0.00,meteohub,2013-05-27 22:22:00,
2013-05-27 17:27:00,56.8,55.4,29.04,NE,45,2.0,2.0,95,0.00,,,0.00,meteohub,2013-05-27 22:27:00,
2013-05-27 17:32:00,56.8,55.8,29.04,NE,45,2.0,2.0,96,0.00,,,0.00,meteohub,2013-05-27 22:32:00,
2013-05-27 17:37:00,56.8,55.8,29.04,NE,45,4.0,4.0,96,0.00,,,0.00,meteohub,2013-05-27 22:37:00,
2013-05-27 17:42:00,56.7,55.8,29.01,ENE,68,3.0,4.0,97,0.00,,,0.00,meteohub,2013-05-27 22:42:00,
2013-05-27 17:47:00,56.8,55.9,29.01,ENE,68,3.0,4.0,97,0.00,,,0.00,meteohub,2013-05-27 22:47:00,
2013-05-27 17:52:00,56.8,55.9,29.01,NNE,22,3.0,4.0,97,0.00,,,0.00,meteohub,2013-05-27 22:52:00,
2013-05-27 17:57:00,56.8,55.9,29.01,ENE,68,2.0,4.0,97,0.00,,,0.00,meteohub,2013-05-27 22:57:00,
2013-05-27 18:02:00,57.0,56.1,29.01,NE,45,2.0,4.0,97,0.00,,,0.00,meteohub,2013-05-27 23:02:00,
2013-05-27 18:07:00,57.0,56.1,29.01,NE,45,3.0,4.0,97,0.00,,,0.00,meteohub,2013-05-27 23:07:00,
2013-05-27 18:12:00,57.0,56.1,29.01,NE,45,3.0,4.0,97,0.00,,,0.00,meteohub,2013-05-27 23:12:00,
2013-05-27 18:17:00,57.0,56.5,29.01,NE,45,3.0,4.0,98,0.00,,,0.00,meteohub,2013-05-27 23:17:00,
2013-05-27 18:22:00,57.0,56.5,29.01,NE,45,4.0,4.0,98,0.00,,,0.00,meteohub,2013-05-27 23:22:00,
2013-05-27 18:27:00,57.0,56.5,28.98,ENE,68,3.0,6.0,98,0.00,,,0.00,meteohub,2013-05-27 23:27:00,
2013-05-27 18:32:00,56.8,55.9,28.98,NE,45,3.0,6.0,97,0.00,,,0.00,meteohub,2013-05-27 23:32:00,
2013-05-27 18:37:00,56.8,56.3,28.98,NE,45,4.0,6.0,98,0.00,,,0.00,meteohub,2013-05-27 23:37:00,
2013-05-27 18:42:00,56.8,55.9,28.98,NE,45,3.0,5.0,97,0.00,,,0.00,meteohub,2013-05-27 23:42:00,
2013-05-27 18:47:00,56.8,55.9,28.98,NE,45,3.0,5.0,97,0.00,,,0.00,meteohub,2013-05-27 23:47:00,
2013-05-27 18:52:00,56.8,55.9,28.98,NE,45,4.0,5.0,97,0.00,,,0.00,meteohub,2013-05-27 23:52:00,
2013-05-27 18:57:00,56.8,55.9,28.98,NE,45,3.0,4.0,97,0.00,,,0.00,meteohub,2013-05-27 23:57:00,
2013-05-27 19:02:00,56.8,55.9,29.01,ENE,68,4.0,4.0,97,0.00,,,0.00,meteohub,2013-05-28 00:02:00,
2013-05-27 19:07:00,56.8,55.9,29.01,ENE,68,2.0,4.0,97,0.00,,,0.00,meteohub,2013-05-28 00:07:00,
2013-05-27 19:12:00,56.8,55.9,29.01,NE,45,1.0,4.0,97,0.00,,,0.00,meteohub,2013-05-28 00:12:00,
2013-05-27 19:17:00,56.8,55.9,29.01,NE,45,2.0,4.0,97,0.00,,,0.00,meteohub,2013-05-28 00:17:00,
2013-05-27 19:22:00,56.8,55.9,29.01,ENE,68,0.0,3.0,97,0.00,,,0.00,meteohub,2013-05-28 00:22:00,
2013-05-27 19:27:00,56.8,55.9,29.01,ENE,68,2.0,3.0,97,0.00,,,0.00,meteohub,2013-05-28 00:27:00,
2013-05-27 19:32:00,56.8,55.9,29.01,ENE,68,2.0,3.0,97,0.00,,,0.00,meteohub,2013-05-28 00:32:00,
2013-05-27 19:37:00,56.8,55.9,29.01,ENE,68,2.0,3.0,97,0.00,,,0.00,meteohub,2013-05-28 00:37:00,
2013-05-27 19:42:00,56.8,55.9,29.01,ENE,68,2.0,4.0,97,0.00,,,0.00,meteohub,2013-05-28 00:42:00,
2013-05-27 19:47:00,56.8,55.9,29.01,ENE,68,2.0,4.0,97,0.00,,,0.00,meteohub,2013-05-28 00:47:00,
2013-05-27 19:52:00,56.8,55.9,29.01,NE,45,3.0,4.0,97,0.00,,,0.00,meteohub,2013-05-28 00:52:00,
2013-05-27 19:57:00,56.7,55.8,29.01,NE,45,1.0,3.0,97,0.00,,,0.00,meteohub,2013-05-28 00:57:00,
2013-05-27 20:02:00,56.7,55.8,29.01,NE,45,1.0,3.0,97,0.00,,,0.00,meteohub,2013-05-28 01:02:00,
2013-05-27 20:07:00,56.7,55.8,29.01,NE,45,1.0,3.0,97,0.00,,,0.00,meteohub,2013-05-28 01:07:00,
2013-05-27 20:12:00,56.7,55.6,29.01,NE,45,0.0,3.0,96,0.00,,,0.00,meteohub,2013-05-28 01:12:00,
2013-05-27 20:17:00,56.7,55.6,29.01,ENE,68,2.0,3.0,96,0.00,,,0.00,meteohub,2013-05-28 01:17:00,
2013-05-27 20:22:00,56.7,55.8,29.01,NE,45,3.0,3.0,97,0.00,,,0.00,meteohub,2013-05-28 01:22:00,
2013-05-27 20:27:00,56.7,55.6,29.01,NE,45,4.0,4.0,96,0.00,,,0.00,meteohub,2013-05-28 01:27:00,
2013-05-27 20:32:00,56.7,55.6,29.01,NE,45,3.0,4.0,96,0.00,,,0.00,meteohub,2013-05-28 01:32:00,
2013-05-27 20:37:00,56.7,55.6,29.01,ENE,68,2.0,4.0,96,0.00,,,0.00,meteohub,2013-05-28 01:37:00,
2013-05-27 20:42:00,56.7,55.6,29.01,NE,45,3.0,4.0,96,0.00,,,0.00,meteohub,2013-05-28 01:42:00,
2013-05-27 20:47:00,56.5,55.4,29.01,ENE,68,3.0,4.0,96,0.00,,,0.00,meteohub,2013-05-28 01:47:00,
2013-05-27 20:52:00,56.5,55.4,29.01,NE,45,3.0,4.0,96,0.00,,,0.00,meteohub,2013-05-28 01:52:00,
2013-05-27 20:57:00,56.3,55.2,29.01,NE,45,3.0,4.0,96,0.00,,,0.00,meteohub,2013-05-28 01:57:00,
2013-05-27 21:02:00,56.3,55.4,29.01,NE,45,3.0,4.0,97,0.00,,,0.00,meteohub,2013-05-28 02:02:00,
2013-05-27 21:07:00,56.3,55.4,29.01,NE,45,2.0,4.0,97,0.00,,,0.00,meteohub,2013-05-28 02:07:00,
2013-05-27 21:12:00,56.3,55.4,29.01,NE,45,3.0,4.0,97,0.00,,,0.00,meteohub,2013-05-28 02:12:00,
2013-05-27 21:17:00,56.3,55.4,29.01,NE,45,4.0,4.0,97,0.00,,,0.00,meteohub,2013-05-28 02:17:00,
2013-05-27 21:22:00,56.3,55.4,29.01,NE,45,4.0,5.0,97,0.00,,,0.00,meteohub,2013-05-28 02:22:00,
2013-05-27 21:27:00,56.3,55.4,29.01,NE,45,3.0,5.0,97,0.00,,,0.00,meteohub,2013-05-28 02:27:00,
2013-05-27 21:32:00,56.3,55.4,29.01,NE,45,3.0,5.0,97,0.00,,,0.00,meteohub,2013-05-28 02:32:00,
2013-05-27 21:37:00,56.3,55.4,29.01,ENE,68,4.0,5.0,97,0.00,,,0.00,meteohub,2013-05-28 02:37:00,
2013-05-27 21:42:00,56.3,55.4,29.01,NE,45,4.0,5.0,97,0.00,,,0.00,meteohub,2013-05-28 02:42:00,
2013-05-27 21:47:00,56.3,55.4,29.01,ENE,68,4.0,5.0,97,0.00,,,0.00,meteohub,2013-05-28 02:47:00,
2013-05-27 21:52:00,56.3,55.4,29.01,NE,45,4.0,5.0,97,0.00,,,0.00,meteohub,2013-05-28 02:52:00,
2013-05-27 21:57:00,56.1,55.2,29.01,NE,45,3.0,5.0,97,0.00,,,0.00,meteohub,2013-05-28 02:57:00,
2013-05-27 22:02:00,56.1,55.2,29.01,North,0,3.0,5.0,97,0.00,,,0.00,meteohub,2013-05-28 03:02:00,
2013-05-27 22:07:00,56.1,55.2,29.01,NE,45,3.0,4.0,97,0.00,,,0.00,meteohub,2013-05-28 03:07:00,
2013-05-27 22:12:00,56.1,55.2,29.01,NE,45,3.0,4.0,97,0.00,,,0.00,meteohub,2013-05-28 03:12:00,
2013-05-27 22:17:00,56.1,55.2,29.01,NE,45,3.0,4.0,97,0.00,,,0.00,meteohub,2013-05-28 03:17:00,
2013-05-27 22:22:00,56.1,55.2,29.01,NE,45,4.0,5.0,97,0.00,,,0.00,meteohub,2013-05-28 03:22:00,
2013-05-27 22:27:00,56.1,55.2,29.01,NE,45,4.0,5.0,97,0.00,,,0.00,meteohub,2013-05-28 03:27:00,
2013-05-27 22:32:00,56.1,55.0,29.01,ENE,68,4.0,5.0,96,0.00,,,0.00,meteohub,2013-05-28 03:32:00,
2013-05-27 22:37:00,56.1,55.0,29.01,NE,45,3.0,5.0,96,0.00,,,0.00,meteohub,2013-05-28 03:37:00,
2013-05-27 22:43:00,56.1,55.0,29.04,NE,45,2.0,5.0,96,0.00,,,0.00,meteohub,2013-05-28 03:43:00,
2013-05-27 22:48:00,56.1,55.0,29.04,NE,45,2.0,4.0,96,0.00,,,0.00,meteohub,2013-05-28 03:48:00,
2013-05-27 22:53:00,56.1,55.0,29.04,ENE,68,4.0,4.0,96,0.00,,,0.00,meteohub,2013-05-28 03:53:00,
2013-05-27 22:58:00,56.1,55.0,29.01,NE,45,3.0,4.0,96,0.00,,,0.00,meteohub,2013-05-28 03:58:00,
2013-05-27 23:01:00,56.1,55.0,29.01,NE,45,4.0,4.0,96,0.00,,,0.00,meteohub,2013-05-28 04:01:00,
2013-05-27 23:02:00,56.1,55.0,29.01,NE,45,4.0,4.0,96,0.00,,,0.00,meteohub,2013-05-28 04:02:00,
2013-05-27 23:03:00,56.1,55.0,29.01,NE,45,3.0,4.0,96,0.00,,,0.00,meteohub,2013-05-28 04:03:00,
2013-05-27 23:08:00,56.1,55.0,29.01,ENE,68,3.0,4.0,96,0.00,,,0.00,meteohub,2013-05-28 04:08:00,
2013-05-27 23:14:00,55.9,54.9,29.01,NE,45,4.0,4.0,96,0.00,,,0.00,meteohub,2013-05-28 04:14:00,
2013-05-27 23:19:00,55.9,54.9,29.01,NE,45,4.0,4.0,96,0.00,,,0.00,meteohub,2013-05-28 04:19:00,
2013-05-27 23:24:00,55.8,54.9,29.01,ENE,68,2.0,4.0,97,0.00,,,0.00,meteohub,2013-05-28 04:24:00,
2013-05-27 23:29:00,55.6,54.7,28.98,NE,45,3.0,4.0,97,0.00,,,0.00,meteohub,2013-05-28 04:29:00,
2013-05-27 23:34:00,55.6,54.7,28.98,ESE,112,4.0,4.0,97,0.00,,,0.00,meteohub,2013-05-28 04:34:00,
2013-05-27 23:39:00,55.6,54.7,28.98,NE,45,3.0,4.0,97,0.00,,,0.00,meteohub,2013-05-28 04:39:00,
2013-05-27 23:44:00,55.4,54.5,28.98,ESE,112,4.0,4.0,97,0.00,,,0.00,meteohub,2013-05-28 04:44:00,
2013-05-27 23:50:00,55.4,54.9,28.98,ENE,68,3.0,4.0,98,0.00,,,0.00,meteohub,2013-05-28 04:50:00,
2013-05-27 23:55:00,55.4,54.9,28.98,ENE,68,0.0,4.0,98,0.00,,,0.00,meteohub,2013-05-28 04:55:00,